Location: Northcutt
(34.7304°N, 84.4305°W)
Time: 10:54:10
(UTC+00:00)

A-11 Canister half - Pass Details

Date: 10 October 2022
Orbit: 1524 x 1685 km, 47.3° (Epoch: 30 November)

Event Time Altitude Azimuth Distance (km) Brightness Sun altitude
Rises 18:35:25 0° 238° (WSW) 4,699 12.1 45.2°
Reaches altitude 10° 18:38:29 10° 240° (WSW) 3,704 11.8 44.9°
Maximum altitude 18:47:49 78° 326° (NNW) 1,554 9.7 44.0°
Drops below altitude 10° 18:57:09 10° 54° (NE) 3,702 10.7 43.0°
Sets 19:00:13 0° 55° (NE) 4,696 11.1 42.7°
